KLM810 WMKK-EHAM

Flight info

Callsign KLM810
Flight time N/A
Altitude 34000
Route ATIMU1D ATIMU Y506 VPG B579 VPL P628 RK G202 ZB L750 RANAH B449 MAMED B450 BIBIM A909 RODAR N644 ADEKI DCT BADIR DCT LAGAS DCT FOQUS DCT SARPI UM10 GOKPA UL746 INB UW90 DEVMU UL852 NEGEM DCT DEGET DCT ALAMU DCT MAREG DCT KOVEL DCT DITIS DCT VARIK DCT KATCE DCT NORKU
Aircraft B789/H-SDE2E3GHIJ1J3J5P2RWXYZ/LD1B1

Departure

Time N/A
Airport Kuala Lumpur International Airport (WMKK)

Arrival

Time 2026-05-05 11:15
Airport Amsterdam Airport Schiphol (EHAM)
Time Latitude Longitude Altitude Speed Heading
2026-05-05 10:22 50.67230 11.59372 37885 ft 460 kts 304°
2026-05-05 10:22 50.69149 11.55343 37888 ft 459 kts 304°
2026-05-05 10:22 50.72958 11.47330 37889 ft 460 kts 304°
2026-05-05 10:23 50.76785 11.39250 37890 ft 460 kts 304°
2026-05-05 10:23 50.80623 11.31132 37901 ft 461 kts 304°
2026-05-05 10:24 50.83811 11.24362 37908 ft 462 kts 304°
2026-05-05 10:24 50.87647 11.16197 37906 ft 462 kts 304°
2026-05-05 10:25 50.91481 11.08010 37908 ft 462 kts 304°
2026-05-05 10:25 50.95295 10.99839 37911 ft 460 kts 304°
2026-05-05 10:26 50.99092 10.91678 37908 ft 459 kts 304°
2026-05-05 10:26 51.02883 10.83505 37908 ft 460 kts 304°
2026-05-05 10:27 51.06648 10.75365 37908 ft 460 kts 304°
2026-05-05 10:27 51.10438 10.67144 37911 ft 461 kts 304°
2026-05-05 10:28 51.14229 10.58894 37914 ft 462 kts 304°
2026-05-05 10:28 51.18023 10.50609 37917 ft 463 kts 304°
2026-05-05 10:29 51.21807 10.42324 37904 ft 461 kts 304°
2026-05-05 10:29 51.25453 10.33933 37925 ft 457 kts 295°
2026-05-05 10:30 51.28261 10.24820 37907 ft 458 kts 294°
2026-05-05 10:30 51.31042 10.15655 37893 ft 459 kts 294°
2026-05-05 10:31 51.33810 10.06556 37882 ft 458 kts 294°
2026-05-05 10:31 51.36580 9.97386 37884 ft 458 kts 294°
2026-05-05 10:32 51.39347 9.88199 37887 ft 459 kts 294°
2026-05-05 10:32 51.42113 9.78980 37892 ft 460 kts 294°
2026-05-05 10:33 51.44873 9.69749 37889 ft 459 kts 293°
2026-05-05 10:33 51.47622 9.60514 37889 ft 459 kts 293°
2026-05-05 10:34 51.50363 9.51275 37885 ft 458 kts 293°
2026-05-05 10:34 51.53092 9.42040 37890 ft 458 kts 293°
2026-05-05 10:35 51.55812 9.32797 37884 ft 458 kts 293°
2026-05-05 10:35 51.58528 9.23535 37883 ft 459 kts 293°
2026-05-05 10:36 51.61228 9.14235 37889 ft 459 kts 292°
2026-05-05 10:36 51.63723 9.04785 37890 ft 459 kts 291°
2026-05-05 10:37 51.66302 8.95372 37895 ft 460 kts 291°
2026-05-05 10:37 51.68840 8.85900 37894 ft 461 kts 291°
2026-05-05 10:38 51.71371 8.76483 37897 ft 461 kts 291°
2026-05-05 10:38 51.73904 8.67000 37896 ft 459 kts 291°
2026-05-05 10:39 51.76421 8.57544 37888 ft 458 kts 291°
2026-05-05 10:39 51.78927 8.48085 37891 ft 458 kts 291°
2026-05-05 10:40 51.80166 8.43397 37868 ft 447 kts 291°
2026-05-05 10:40 51.81368 8.38845 37878 ft 436 kts 291°
2026-05-05 10:40 51.83751 8.29759 37883 ft 445 kts 291°
2026-05-05 10:41 51.86195 8.20438 37905 ft 455 kts 291°
2026-05-05 10:41 51.88674 8.10923 37910 ft 460 kts 291°
2026-05-05 10:42 51.92388 7.96605 37913 ft 459 kts 291°
2026-05-05 10:43 51.94847 7.87070 37915 ft 458 kts 291°
2026-05-05 10:43 51.97297 7.77542 37915 ft 457 kts 291°
2026-05-05 10:44 51.99733 7.68012 37914 ft 458 kts 290°
2026-05-05 10:44 52.02154 7.58513 37916 ft 459 kts 290°
2026-05-05 10:45 52.04597 7.48875 37916 ft 458 kts 290°
2026-05-05 10:45 52.07017 7.39297 37916 ft 458 kts 290°
2026-05-05 10:46 52.09422 7.29729 37907 ft 450 kts 290°
2026-05-05 10:46 52.10571 7.25155 37890 ft 435 kts 290°
2026-05-05 10:46 52.11693 7.20678 37839 ft 417 kts 290°
2026-05-05 10:46 52.12746 7.16456 37496 ft 391 kts 290°
2026-05-05 10:47 52.13756 7.12396 36577 ft 383 kts 290°
2026-05-05 10:47 52.14743 7.08423 35705 ft 374 kts 290°
2026-05-05 10:47 52.15715 7.04512 34674 ft 371 kts 289°
2026-05-05 10:47 52.16671 7.00659 33801 ft 363 kts 289°
2026-05-05 10:48 52.17608 6.96867 33275 ft 358 kts 289°
2026-05-05 10:48 52.18530 6.93134 32879 ft 354 kts 289°
2026-05-05 10:48 52.19445 6.89421 32455 ft 352 kts 289°
2026-05-05 10:48 52.20358 6.85714 31757 ft 357 kts 289°
2026-05-05 10:49 52.21281 6.81953 31107 ft 358 kts 289°
2026-05-05 10:49 52.22223 6.78112 30344 ft 366 kts 289°
2026-05-05 10:49 52.23162 6.74284 29887 ft 362 kts 289°
2026-05-05 10:49 52.24092 6.70486 29397 ft 359 kts 289°
2026-05-05 10:50 52.25012 6.66712 28883 ft 357 kts 289°
2026-05-05 10:50 52.25925 6.62962 28381 ft 355 kts 289°
2026-05-05 10:50 52.26833 6.59231 27875 ft 353 kts 290°
2026-05-05 10:50 52.27733 6.55522 27366 ft 350 kts 290°
2026-05-05 10:51 52.28626 6.51838 26889 ft 348 kts 290°
2026-05-05 10:51 52.29514 6.48173 26361 ft 346 kts 290°
2026-05-05 10:51 52.30394 6.44531 25845 ft 344 kts 290°
2026-05-05 10:51 52.31268 6.40905 25337 ft 342 kts 290°
2026-05-05 10:52 52.32134 6.37310 24836 ft 339 kts 290°
2026-05-05 10:52 52.32995 6.33730 24308 ft 337 kts 290°
2026-05-05 10:52 52.33849 6.30170 23799 ft 335 kts 290°
2026-05-05 10:52 52.34697 6.26631 23292 ft 333 kts 290°
2026-05-05 10:53 52.35538 6.23114 22782 ft 331 kts 290°
2026-05-05 10:53 52.36373 6.19616 22268 ft 329 kts 290°
2026-05-05 10:53 52.37200 6.16147 21753 ft 327 kts 290°
2026-05-05 10:53 52.38024 6.12691 21243 ft 325 kts 290°
2026-05-05 10:54 52.38840 6.09257 20723 ft 322 kts 290°
2026-05-05 10:54 52.39638 6.05895 20200 ft 320 kts 290°
2026-05-05 10:54 52.40441 6.02505 19683 ft 318 kts 290°
2026-05-05 10:54 52.41238 5.99132 19163 ft 316 kts 290°
2026-05-05 10:55 52.42029 5.95782 18646 ft 315 kts 290°
2026-05-05 10:55 52.42816 5.92450 18120 ft 313 kts 290°
2026-05-05 10:55 52.43597 5.89134 17608 ft 311 kts 290°
2026-05-05 10:55 52.44371 5.85842 17109 ft 308 kts 290°
2026-05-05 10:56 52.45136 5.82584 16610 ft 306 kts 290°
2026-05-05 10:56 52.45896 5.79341 16106 ft 303 kts 290°
2026-05-05 10:56 52.46648 5.76125 15593 ft 301 kts 290°
2026-05-05 10:56 52.47393 5.72936 15091 ft 298 kts 290°
2026-05-05 10:57 52.48132 5.69772 14589 ft 296 kts 290°
2026-05-05 10:57 52.48863 5.66636 14089 ft 293 kts 290°
2026-05-05 10:57 52.49588 5.63523 13591 ft 291 kts 290°
2026-05-05 10:57 52.50302 5.60437 13062 ft 288 kts 289°
2026-05-05 10:58 52.50614 5.57244 12497 ft 285 kts 265°
2026-05-05 10:58 52.50095 5.54154 11980 ft 281 kts 239°
2026-05-05 10:58 52.49107 5.51547 11922 ft 261 kts 240°
2026-05-05 10:58 52.48202 5.48974 11418 ft 261 kts 240°
2026-05-05 10:59 52.47274 5.46408 10851 ft 264 kts 239°
2026-05-05 10:59 52.46311 5.43814 10708 ft 275 kts 239°
2026-05-05 10:59 52.45287 5.41052 10593 ft 289 kts 239°
2026-05-05 10:59 52.44242 5.38216 10468 ft 291 kts 239°
2026-05-05 11:00 52.43196 5.35380 10343 ft 291 kts 239°
2026-05-05 11:00 52.42149 5.32551 10203 ft 290 kts 239°
2026-05-05 11:00 52.41100 5.29720 10080 ft 290 kts 239°
2026-05-05 11:00 52.40053 5.26900 9965 ft 288 kts 239°
2026-05-05 11:01 52.39018 5.24104 9953 ft 288 kts 239°
2026-05-05 11:01 52.37977 5.21302 9955 ft 288 kts 239°
2026-05-05 11:01 52.36935 5.18502 9951 ft 288 kts 239°
2026-05-05 11:01 52.35892 5.15699 9952 ft 289 kts 239°
2026-05-05 11:02 52.34845 5.12892 9953 ft 289 kts 239°
2026-05-05 11:02 52.33835 5.10058 9952 ft 288 kts 246°
2026-05-05 11:02 52.33454 5.06866 9954 ft 288 kts 267°
2026-05-05 11:02 52.33399 5.03584 9954 ft 290 kts 270°
2026-05-05 11:03 52.33411 5.00294 9952 ft 289 kts 270°
2026-05-05 11:03 52.33406 4.97006 9954 ft 289 kts 269°
2026-05-05 11:03 52.33375 4.93715 9953 ft 289 kts 269°
2026-05-05 11:03 52.33343 4.90430 9950 ft 289 kts 269°
2026-05-05 11:04 52.33319 4.87169 9749 ft 291 kts 269°
2026-05-05 11:04 52.33294 4.83875 9542 ft 289 kts 269°
2026-05-05 11:04 52.33266 4.80594 9340 ft 288 kts 269°
2026-05-05 11:04 52.33237 4.77319 9101 ft 288 kts 269°
2026-05-05 11:05 52.33207 4.74054 8854 ft 286 kts 269°
2026-05-05 11:05 52.33177 4.70806 8606 ft 285 kts 269°
2026-05-05 11:05 52.33147 4.67577 8356 ft 284 kts 269°
2026-05-05 11:05 52.33115 4.64360 8098 ft 281 kts 269°
2026-05-05 11:06 52.33082 4.61230 7835 ft 269 kts 269°
2026-05-05 11:06 52.33051 4.58228 7571 ft 259 kts 269°
2026-05-05 11:06 52.33020 4.55323 7294 ft 252 kts 269°
2026-05-05 11:06 52.32989 4.52493 7019 ft 248 kts 269°
2026-05-05 11:07 52.32958 4.49692 6749 ft 246 kts 269°
2026-05-05 11:07 52.32928 4.46904 6461 ft 244 kts 269°
2026-05-05 11:07 52.32895 4.44129 6229 ft 244 kts 269°
2026-05-05 11:07 52.32820 4.41370 5972 ft 241 kts 261°
2026-05-05 11:08 52.32104 4.38974 5723 ft 235 kts 230°
2026-05-05 11:08 52.30777 4.37494 5485 ft 233 kts 199°
2026-05-05 11:08 52.29189 4.37098 5246 ft 231 kts 184°
2026-05-05 11:08 52.27592 4.36913 5015 ft 230 kts 183°
2026-05-05 11:09 52.25997 4.36734 4784 ft 229 kts 184°
2026-05-05 11:09 52.24431 4.36955 4518 ft 227 kts 157°
2026-05-05 11:09 52.23200 4.38487 4293 ft 224 kts 125°
2026-05-05 11:09 52.22491 4.40725 4095 ft 222 kts 114°
2026-05-05 11:10 52.21848 4.42978 3905 ft 214 kts 113°
2026-05-05 11:10 52.21233 4.45130 3719 ft 206 kts 113°
2026-05-05 11:10 52.20872 4.47305 3453 ft 196 kts 89°
2026-05-05 11:10 52.20888 4.48762 3313 ft 192 kts 89°
2026-05-05 11:11 52.20839 4.50914 3104 ft 187 kts 91°
2026-05-05 11:11 52.20958 4.52973 2851 ft 182 kts 64°
2026-05-05 11:11 52.21671 4.54655 2661 ft 182 kts 58°
2026-05-05 11:11 52.22265 4.56476 2419 ft 182 kts 57°
2026-05-05 11:12 52.22924 4.58180 2198 ft 170 kts 58°
2026-05-05 11:12 52.23520 4.59736 1981 ft 157 kts 57°
2026-05-05 11:12 52.24084 4.61202 1772 ft 150 kts 57°
2026-05-05 11:12 52.24636 4.62635 1569 ft 148 kts 57°
2026-05-05 11:13 52.25185 4.64059 1375 ft 149 kts 57°
2026-05-05 11:13 52.25731 4.65471 1183 ft 147 kts 58°
2026-05-05 11:13 52.26270 4.66886 992 ft 146 kts 59°
2026-05-05 11:13 52.26815 4.68294 767 ft 146 kts 57°
2026-05-05 11:14 52.27358 4.69688 590 ft 146 kts 57°
2026-05-05 11:14 52.27905 4.71106 389 ft 147 kts 57°
2026-05-05 11:14 52.28448 4.72521 211 ft 148 kts 58°
2026-05-05 11:14 52.28991 4.73932 26 ft 145 kts 58°
2026-05-05 11:15 52.29441 4.75104 3 ft 88 kts 57°
2026-05-05 11:15 52.29665 4.75686 4 ft 41 kts 58°
2026-05-05 11:15 52.29758 4.75929 3 ft 16 kts 58°
2026-05-05 11:15 52.29827 4.76108 1 ft 22 kts 58°
2026-05-05 11:16 52.29919 4.76347 2 ft 28 kts 58°
2026-05-05 11:16 52.30066 4.76572 4 ft 30 kts 27°
2026-05-05 11:16 52.30270 4.76747 4 ft 27 kts 30°
2026-05-05 11:16 52.30361 4.76946 4 ft 22 kts 58°
2026-05-05 11:17 52.30433 4.77049 4 ft 7 kts 354°
2026-05-05 11:17 52.30457 4.77027 4 ft 8 kts 325°
2026-05-05 11:17 52.30537 4.76936 4 ft 19 kts 325°
2026-05-05 11:17 52.30650 4.76832 4 ft 19 kts 339°
2026-05-05 11:18 52.30744 4.76796 4 ft 4 kts 25°
2026-05-05 11:18 52.30754 4.76815 4 ft 4 kts 50°
2026-05-05 11:18 52.30774 4.76863 5 ft 0 kts 57°